Location: Unspecified
(0.0000°N, 0.0000°E)
Time: 00:01:55
(UTC+00:00)

ISS - Pass Details

Date: 11 March 2019
Orbit: 411 x 421 km, 51.6° (Epoch: 14 October)

Event Time Altitude Azimuth Distance (km) Brightness Sun altitude
Rises 08:39:50 0° 337° (NNW) 2,336 -0.2 37.3°
Reaches altitude 10° 08:42:01 10° 347° (NNW) 1,479 -1.0 37.9°
Maximum altitude 08:45:06 35° 55° (NE) 685 -1.5 38.6°
Drops below altitude 10° 08:48:12 10° 123° (ESE) 1,491 0.0 39.4°
Sets 08:50:24 0° 132° (SE) 2,358 0.7 40.0°
